Theta_e
309 307 304 303 304 303 299 298 299 299 298 298 298 297 296 296 294 290 289 290 290 291 293 294 296 298 299 298 299 298 298 298 297 296 296 296 295 294 294 293 293 292
307 303 302 302 302 301 301 301 301 302 301 299 298 298 297 295 292 290 289 289 289 290 291 293 295 296 295 296 296 296 295 295 294 294 294 294 293 293 293 293 293 292
306 302 301 301 300 300 300 301 303 302 301 300 299 297 296 294 291 290 289 288 288 289 289 291 293 293 293 294 294 294 294 293 292 291 292 292 291 291 292 291 291 291
304 301 301 301 301 300 300 299 298 298 297 297 297 298 296 293 291 289 288 287 288 287 289 290 292 292 292 292 293 293 293 292 291 291 291 290 290 290 289 290 290 290
303 301 300 300 301 300 297 296 295 295 295 296 296 295 292 290 289 288 287 287 287 287 288 289 290 290 291 291 291 291 291 290 289 290 289 289 289 288 288 288 287 287
303 302 299 298 298 297 295 293 293 293 293 293 294 292 291 289 288 288 287 286 286 286 287 288 289 289 289 289 290 290 288 288 288 288 288 287 286 287 287 288 286 286
301 298 297 299 297 295 293 292 292 292 292 293 292 290 289 288 288 287 287 286 286 286 286 287 287 287 287 288 288 287 287 287 286 287 287 287 286 285 286 286 286 285
299 297 296 296 295 293 291 291 291 290 291 291 290 288 287 288 288 288 287 287 286 285 286 286 287 287 286 287 287 286 286 287 286 286 286 286 285 284 284 285 285 285
296 294 294 294 293 292 291 290 290 289 290 290 288 287 287 287 287 286 286 286 285 285 286 286 286 286 286 286 286 286 285 285 286 286 286 285 284 284 284 285 284 284
295 294 293 292 292 292 291 290 290 290 289 288 287 286 285 286 285 286 285 285 284 285 285 286 285 285 285 286 286 286 285 285 285 286 285 285 284 284 284 284 284 282
294 292 292 291 291 291 291 290 290 288 287 286 286 285 285 285 285 285 284 284 285 285 285 285 284 284 285 285 285 286 285 285 285 284 284 284 284 284 284 283 283 282
294 292 290 290 291 291 290 289 288 287 286 285 286 285 284 285 285 284 283 283 284 285 285 284 284 284 284 284 285 285 285 284 283 283 284 284 284 283 282 282 281 282
294 292 290 290 290 290 289 288 287 286 285 285 285 285 284 284 284 283 283 284 284 284 284 284 283 283 284 284 284 284 283 283 283 284 284 283 283 282 281 281 281 281
294 293 291 290 290 289 289 288 287 285 284 284 284 284 283 283 283 283 283 283 284 284 284 284 283 284 284 284 283 283 283 283 283 283 282 282 281 281 281 281 281 280
294 292 291 290 289 288 287 287 286 285 284 283 283 283 284 283 283 282 282 282 283 283 283 283 283 282 282 282 282 283 283 283 283 283 282 282 281 281 280 279 279 278
293 291 290 290 289 287 286 286 285 284 284 283 283 283 283 283 282 282 282 282 282 282 282 281 281 282 283 284 284 283 283 283 283 283 282 282 280 278 278 278 278 278
292 291 290 288 288 286 285 285 284 284 284 283 283 283 282 282 282 282 282 282 282 281 281 281 281 282 284 286 286 285 283 283 283 282 281 280 279 278 277 277 278 278
291 290 288 288 287 286 285 284 284 284 283 283 283 283 282 282 282 282 282 282 282 282 282 282 282 283 285 286 286 286 285 284 283 282 281 280 280 279 278 277 277 277
290 289 288 287 286 286 285 284 284 283 283 282 282 283 283 281 281 282 282 282 282 281 282 282 281 284 285 286 287 286 285 283 283 283 282 281 279 278 278 278 278 278
289 288 287 287 286 286 285 284 284 283 283 283 283 283 282 281 282 282 282 282 282 281 281 281 281 284 286 287 287 286 285 284 284 283 282 281 279 279 278 278 278 279
288 288 287 286 286 285 284 284 283 283 283 283 283 282 281 281 282 282 282 282 282 282 281 281 280 285 287 287 287 286 286 284 283 282 282 280 279 278 279 279 279 279
287 286 286 286 285 284 284 283 283 283 283 283 282 282 282 282 282 283 282 282 282 282 281 281 281 285 287 287 287 287 286 283 282 281 281 280 280 279 279 279 279 279
287 286 286 285 285 284 284 283 283 283 283 283 282 282 282 282 282 282 282 282 282 282 281 280 281 285 287 287 287 287 286 283 282 281 281 280 280 280 280 279 279 279
287 286 285 285 284 284 284 284 284 284 283 283 282 281 281 281 281 282 282 282 282 282 281 280 280 284 287 287 287 288 286 284 284 283 282 282 281 281 281 280 280 281
286 286 285 285 284 284 284 283 283 283 283 283 282 282 281 282 281 281 281 281 281 281 282 280 280 283 287 287 288 288 286 285 285 284 284 283 283 282 282 282 281 281
286 285 285 284 284 284 284 284 284 282 282 282 282 282 281 281 281 280 279 280 280 280 280 280 280 282 285 287 287 287 286 285 285 284 283 283 283 283 283 283 283 282
Wind_Speed
13 8 7 8 8 5 7 8 6 7 8 6 7 8 9 8 10 9 7 6 6 5 5 5 6 6 5 6 7 6 6 6 6 5 6 6 5 7 5 5 5 4
11 7 7 7 7 5 7 9 10 9 9 9 7 6 5 7 8 9 9 7 6 6 5 6 6 6 7 7 7 7 6 6 5 3 6 6 6 6 6 6 5 4
11 9 10 11 8 8 8 7 7 6 6 7 9 6 6 6 8 8 8 7 7 6 6 6 6 6 7 7 7 7 7 7 7 6 6 7 6 6 6 5 5 5
10 8 10 10 9 8 8 7 6 5 5 5 7 7 6 5 6 8 7 9 7 7 6 7 7 7 7 7 8 6 6 7 6 7 7 6 5 6 6 5 6 5
11 9 8 9 8 7 7 7 7 6 7 7 5 5 6 6 6 7 8 6 6 7 7 7 7 8 8 7 8 7 7 7 7 7 7 7 6 6 6 6 7 7
9 8 8 8 7 8 7 9 10 8 5 6 8 5 5 6 6 8 9 9 7 7 8 8 9 8 8 8 8 7 8 8 7 8 8 8 7 5 4 5 7 7
8 8 9 12 9 8 6 9 8 8 6 6 5 6 6 7 7 8 9 8 8 7 9 9 10 9 8 8 8 8 7 8 9 8 9 7 8 7 5 6 6 6
13 11 8 8 9 8 7 9 8 6 6 6 8 5 6 8 9 7 8 9 7 7 8 9 10 10 9 9 8 9 8 5 8 9 9 8 8 8 6 5 6 7
9 8 8 9 9 8 9 9 8 7 7 9 7 7 7 7 6 6 7 7 7 7 9 9 10 10 9 9 9 9 9 8 7 9 9 9 9 8 8 6 7 6
10 9 10 10 10 9 10 9 8 8 8 8 6 5 5 6 6 8 8 7 7 8 9 9 10 9 9 8 9 10 9 10 9 8 8 8 8 8 8 8 8 7
12 10 10 11 11 9 10 9 9 8 7 7 7 6 7 7 7 7 7 8 8 10 10 10 10 10 10 9 8 8 10 10 9 7 7 7 8 8 9 8 8 7
13 12 12 12 11 10 10 9 9 8 9 8 8 9 8 9 10 8 10 9 9 10 10 10 10 10 10 10 9 8 7 7 7 7 8 8 8 7 7 6 6 7
13 12 11 11 10 10 9 9 9 9 10 10 10 10 10 10 10 9 8 9 10 10 10 10 9 8 8 8 9 9 8 9 9 8 8 7 6 7 6 5 5 5
13 11 11 11 10 10 9 10 10 9 8 7 8 8 8 9 10 10 8 9 10 10 9 8 9 9 9 9 9 9 8 8 8 8 8 7 7 6 6 6 6 5
10 10 10 10 9 9 9 9 9 9 8 7 7 8 7 8 7 6 7 8 8 8 8 7 7 6 6 8 8 8 7 8 8 9 9 9 7 6 5 5 4 3
10 8 9 9 10 9 9 9 9 9 9 9 9 8 6 7 8 6 8 9 10 9 7 5 4 4 10 15 13 11 9 7 7 8 9 8 8 7 5 5 4 4
10 10 10 11 10 8 8 7 8 7 8 7 8 7 7 8 8 9 9 8 9 8 9 9 8 8 14 13 13 11 9 9 9 8 8 6 6 7 7 6 5 4
9 9 10 10 9 8 8 7 5 6 5 6 6 6 6 6 7 8 9 8 7 9 11 9 9 12 15 15 15 16 12 8 7 6 6 7 7 7 5 5 5 4
9 9 9 9 7 7 5 6 8 8 9 8 9 6 5 9 7 8 9 10 11 12 11 9 7 12 16 16 16 16 13 9 6 7 7 6 6 7 7 7 6 4
8 8 7 8 6 6 6 7 6 8 8 7 6 6 7 8 5 7 8 10 10 9 7 6 6 11 15 15 14 15 14 10 5 6 5 6 7 7 6 7 7 7
8 8 7 6 6 7 7 6 6 5 6 6 6 8 9 8 7 8 8 7 5 5 6 4 5 13 15 16 16 16 16 9 4 4 4 4 5 5 6 7 5 5
9 6 7 7 7 7 7 7 7 6 8 7 6 5 4 4 4 5 6 6 6 5 6 6 6 15 16 17 17 16 14 5 4 4 4 3 4 5 5 4 4 5
9 9 6 7 7 7 7 7 7 7 6 5 6 6 6 6 5 5 5 6 7 7 6 6 4 11 13 14 14 16 11 5 5 4 3 4 3 5 4 5 5 6
9 8 7 6 7 8 8 7 7 5 6 6 7 8 7 7 6 5 4 5 6 6 7 8 6 10 15 16 16 16 9 7 5 5 4 4 3 4 4 4 7 10
6 6 6 7 7 6 6 8 7 6 6 5 6 6 7 6 6 5 5 3 4 6 7 7 6 9 13 14 15 15 10 5 5 4 4 4 4 3 4 5 5 7
6 9 9 10 9 7 6 6 6 7 7 7 6 5 5 5 6 6 8 6 6 6 7 7 8 7 10 16 15 14 12 5 4 4 5 5 4 5 5 5 6 5
Wind_Direction
212 205 177 188 204 180 161 185 186 185 189 185 186 189 182 176 163 168 159 157 173 176 183 188 188 184 168 169 174 178 173 160 157 158 154 163 151 150 147 147 153 155
205 179 185 190 202 182 182 191 190 189 189 193 196 188 184 161 159 158 164 155 164 176 169 181 185 176 167 171 171 170 162 158 148 111 149 152 143 145 141 143 137 119
201 184 192 197 199 195 192 191 193 195 190 201 199 196 188 175 154 164 157 152 162 163 163 173 174 171 170 168 164 167 163 153 148 153 151 151 147 147 134 131 124 134
198 185 195 199 200 189 187 187 189 183 185 183 194 187 171 162 168 160 148 156 160 164 160 166 170 168 168 162 162 166 152 151 146 148 144 138 139 130 134 131 132 126
197 196 200 204 198 183 179 188 185 189 190 195 170 161 156 158 163 162 158 152 150 161 159 164 167 165 164 164 170 157 153 149 147 153 148 141 137 136 135 143 143 136
193 193 186 196 194 183 179 191 198 199 180 173 185 162 158 157 173 167 164 163 163 155 160 167 167 163 167 169 169 162 157 152 156 155 144 140 138 134 134 141 138 139
191 182 193 210 203 188 173 193 196 196 188 192 152 172 149 159 182 180 166 166 161 159 166 167 167 163 169 167 169 156 156 147 150 154 142 137 135 133 134 138 142 138
209 205 190 184 192 185 180 194 195 187 179 166 183 166 157 170 185 181 167 162 159 162 166 166 164 164 166 169 163 155 148 140 150 149 138 132 135 141 143 140 144 142
192 186 186 189 186 184 191 191 192 181 171 180 178 172 174 175 168 174 168 160 157 166 170 169 164 162 168 169 163 157 151 152 149 147 143 144 148 148 149 146 145 143
195 185 185 189 191 191 192 185 180 183 176 177 164 142 166 178 165 172 170 166 166 171 176 169 165 165 167 171 163 158 149 150 154 152 150 147 145 143 147 155 156 147
194 187 187 189 191 189 190 184 181 175 172 171 156 161 172 169 173 174 170 174 179 181 175 171 169 166 168 165 162 159 156 151 153 148 138 138 142 148 156 158 162 165
195 191 192 190 190 189 187 183 178 173 173 177 174 175 171 181 177 179 183 178 182 182 176 172 170 170 169 166 162 154 143 133 128 136 143 145 147 149 157 161 157 158
195 192 186 188 186 187 182 180 180 176 176 181 178 176 175 178 182 178 185 179 180 179 181 175 167 163 156 151 150 150 143 142 147 146 144 139 142 149 153 154 165 150
197 193 186 186 183 181 182 183 181 174 173 164 165 173 172 175 175 177 174 173 178 182 180 167 165 166 162 152 148 150 151 153 148 142 136 135 140 148 157 165 166 158
187 188 184 181 175 177 179 180 180 175 171 162 166 174 172 177 175 163 155 170 171 174 169 168 171 166 145 149 149 153 148 145 148 146 148 152 154 153 157 157 146 143
187 176 179 178 180 181 177 176 172 167 166 170 176 177 164 165 170 160 173 178 172 168 159 143 158 153 176 174 170 157 154 148 146 155 158 155 152 145 144 153 158 157
183 183 180 183 182 173 170 151 163 159 165 169 170 164 159 165 169 171 177 174 165 158 158 175 182 176 175 171 168 156 145 151 157 159 145 132 138 150 158 160 159 169
180 174 175 182 174 172 174 173 149 154 153 163 166 166 170 152 170 173 172 163 162 168 182 181 177 177 173 172 167 167 168 154 148 137 142 154 160 169 159 142 153 158
181 172 175 174 173 165 153 149 165 165 168 170 180 174 148 176 175 166 167 174 179 181 182 177 173 172 178 171 168 167 159 141 149 148 156 163 164 155 157 166 170 162
177 176 179 170 156 150 153 157 163 167 167 166 154 151 169 176 166 173 175 182 180 176 170 165 158 171 175 170 163 159 154 154 156 156 153 148 157 155 153 151 153 160
172 172 172 160 157 150 155 160 164 155 146 155 162 169 172 177 167 174 178 175 160 160 153 160 165 171 172 164 162 164 164 154 131 120 125 131 127 128 146 160 167 169
167 163 167 162 155 156 157 159 162 161 164 160 153 149 136 136 153 159 160 164 158 152 151 162 167 177 173 170 167 165 151 118 132 141 138 129 140 160 182 169 167 186
170 165 158 154 152 152 156 157 154 160 153 147 149 152 150 160 159 152 160 155 156 155 154 158 151 177 170 165 162 156 142 144 140 147 150 154 174 179 186 184 195 195
168 160 156 153 152 159 161 165 161 149 149 153 154 161 162 162 149 128 137 153 158 163 167 162 158 173 166 162 161 159 145 143 154 156 157 175 189 191 177 194 214 211
156 147 149 150 158 156 155 156 157 151 137 141 149 142 146 141 137 134 137 135 153 153 146 146 147 163 163 159 159 160 151 149 148 156 175 199 193 196 192 214 221 214
154 163 162 164 165 156 150 150 132 132 143 148 144 138 130 129 139 142 151 153 151 152 154 152 154 162 164 162 162 165 161 149 149 163 197 190 197 215 226 225 213 222